WGS F6 (USA 244)

Last updated on Fri Dec 19 2025 00:02:50 GMT+0000 (Coordinated Universal Time)

1 39222U 13041A 25352.59850155 .00000114 00000+0 00000+0 0 9996 2 39222 0.0052 76.1471 0000200 99.2632 352.3163 1.00274066 44250
UTC large
Height (km)
Speed (km/s)
/
Latitude / Longitude
Inclination (degrees)
Orbital Period (minutes)
Azimuth
Elevation
Range (km)
Doppler Factor

Next 0 passes for location: London (51.5072 / 0.1276)

Sorry there are no passes over London.